UAL728 MROC-TJSJ

Flight info

Callsign UAL728
Flight time N/A
Altitude 37000
Route TEJA3M LIO UM796 PADUR MORLI ROKIN SELAN UM525 MELLA JOSHE JOSHE3
Aircraft A20N/M-SDE2E3FGHIRWXY/LB1

Departure

Time N/A
Airport Juan Santamaría International Airport (MROC)

Arrival

Time 2026-04-27 03:07
Airport Luis Munoz Marin International Airport (TJSJ)
Time Latitude Longitude Altitude Speed Heading
2026-04-27 02:45 18.23428 -67.62641 37028 ft 515 kts 102°
2026-04-27 02:46 18.23272 -67.55233 36727 ft 498 kts 92°
2026-04-27 02:46 18.23395 -67.51603 36199 ft 495 kts 92°
2026-04-27 02:46 18.23497 -67.47975 35497 ft 496 kts 92°
2026-04-27 02:47 18.23567 -67.44331 34799 ft 498 kts 93°
2026-04-27 02:47 18.23616 -67.40687 34113 ft 499 kts 93°
2026-04-27 02:47 18.23652 -67.37033 33358 ft 500 kts 93°
2026-04-27 02:47 18.23684 -67.33422 32621 ft 501 kts 93°
2026-04-27 02:48 18.23714 -67.29712 31878 ft 501 kts 92°
2026-04-27 02:48 18.23743 -67.26091 31183 ft 501 kts 92°
2026-04-27 02:48 18.23773 -67.22415 30489 ft 501 kts 92°
2026-04-27 02:48 18.23802 -67.18744 29755 ft 500 kts 92°
2026-04-27 02:49 18.23831 -67.15108 28952 ft 493 kts 92°
2026-04-27 02:49 18.23850 -67.12732 28441 ft 487 kts 92°
2026-04-27 02:49 18.23879 -67.09200 27695 ft 479 kts 92°
2026-04-27 02:49 18.23907 -67.05724 26960 ft 471 kts 92°
2026-04-27 02:50 18.23932 -67.02303 26245 ft 464 kts 92°
2026-04-27 02:50 18.23962 -66.97852 25324 ft 454 kts 92°
2026-04-27 02:50 18.23977 -66.95615 24872 ft 449 kts 92°
2026-04-27 02:50 18.23999 -66.92390 24216 ft 443 kts 92°
2026-04-27 02:51 18.24020 -66.89163 23557 ft 437 kts 92°
2026-04-27 02:51 18.24040 -66.85986 22775 ft 431 kts 92°
2026-04-27 02:51 18.24059 -66.82851 22025 ft 426 kts 92°
2026-04-27 02:51 18.24077 -66.79758 21283 ft 420 kts 91°
2026-04-27 02:52 18.24094 -66.76705 20564 ft 414 kts 91°
2026-04-27 02:52 18.24111 -66.73693 19867 ft 408 kts 91°
2026-04-27 02:52 18.24127 -66.70724 19170 ft 403 kts 91°
2026-04-27 02:52 18.24142 -66.67800 18488 ft 398 kts 91°
2026-04-27 02:53 18.24157 -66.64908 17754 ft 393 kts 91°
2026-04-27 02:53 18.24170 -66.62049 17000 ft 389 kts 91°
2026-04-27 02:53 18.24185 -66.59215 16255 ft 385 kts 91°
2026-04-27 02:53 18.24199 -66.56456 15540 ft 380 kts 91°
2026-04-27 02:54 18.24213 -66.53692 14839 ft 376 kts 91°
2026-04-27 02:54 18.24208 -66.50967 14142 ft 370 kts 99°
2026-04-27 02:54 18.23490 -66.48416 13411 ft 361 kts 120°
2026-04-27 02:54 18.21999 -66.46348 12662 ft 352 kts 141°
2026-04-27 02:55 18.19957 -66.45030 11927 ft 342 kts 162°
2026-04-27 02:55 18.17655 -66.44620 11211 ft 334 kts 184°
2026-04-27 02:55 18.15425 -66.45161 10521 ft 328 kts 207°
2026-04-27 02:55 18.13652 -66.46567 10154 ft 313 kts 231°
2026-04-27 02:56 18.12669 -66.48504 10004 ft 292 kts 256°
2026-04-27 02:56 18.12564 -66.50594 9638 ft 290 kts 280°
2026-04-27 02:56 18.13343 -66.52556 9156 ft 296 kts 306°
2026-04-27 02:56 18.14878 -66.54000 8670 ft 301 kts 331°
2026-04-27 02:57 18.16873 -66.54630 8164 ft 300 kts 357°
2026-04-27 02:57 18.18938 -66.54489 7690 ft 295 kts
2026-04-27 02:57 18.20911 -66.53997 7248 ft 292 kts 27°
2026-04-27 02:57 18.22469 -66.52699 7055 ft 284 kts 53°
2026-04-27 02:58 18.23596 -66.50973 7003 ft 288 kts 58°
2026-04-27 02:58 18.24710 -66.49224 6926 ft 287 kts 57°
2026-04-27 02:58 18.25826 -66.47477 6608 ft 288 kts 58°
2026-04-27 02:58 18.26944 -66.45732 6251 ft 286 kts 57°
2026-04-27 02:59 18.28040 -66.44024 5888 ft 284 kts 57°
2026-04-27 02:59 18.29142 -66.42304 5523 ft 282 kts 58°
2026-04-27 02:59 18.30236 -66.40595 5162 ft 281 kts 58°
2026-04-27 02:59 18.31324 -66.38894 4796 ft 279 kts 58°
2026-04-27 03:00 18.32402 -66.37202 4434 ft 277 kts 58°
2026-04-27 03:00 18.33474 -66.35520 4071 ft 276 kts 58°
2026-04-27 03:00 18.34541 -66.33846 3709 ft 275 kts 58°
2026-04-27 03:00 18.35604 -66.32179 3343 ft 274 kts 57°
2026-04-27 03:01 18.36660 -66.30523 2982 ft 272 kts 57°
2026-04-27 03:01 18.37714 -66.28867 2621 ft 271 kts 57°
2026-04-27 03:01 18.38761 -66.27221 2307 ft 267 kts 57°
2026-04-27 03:01 18.39774 -66.25627 2212 ft 255 kts 57°
2026-04-27 03:02 18.40721 -66.24140 2204 ft 241 kts 57°
2026-04-27 03:02 18.41627 -66.22718 2202 ft 226 kts 57°
2026-04-27 03:02 18.42469 -66.21395 2198 ft 209 kts 57°
2026-04-27 03:02 18.43173 -66.20138 2214 ft 189 kts 70°
2026-04-27 03:03 18.43398 -66.18796 2210 ft 190 kts 91°
2026-04-27 03:03 18.43372 -66.16061 1841 ft 182 kts 91°
2026-04-27 03:03 18.43370 -66.14754 1707 ft 172 kts 91°
2026-04-27 03:04 18.43371 -66.13556 1693 ft 155 kts 91°
2026-04-27 03:04 18.43372 -66.12418 1703 ft 158 kts 91°
2026-04-27 03:04 18.43371 -66.11275 1714 ft 154 kts 91°
2026-04-27 03:04 18.43371 -66.10142 1698 ft 155 kts 91°
2026-04-27 03:05 18.43367 -66.08991 1427 ft 156 kts 91°
2026-04-27 03:05 18.43365 -66.07868 1218 ft 152 kts 91°
2026-04-27 03:05 18.43364 -66.06816 1025 ft 139 kts 92°
2026-04-27 03:05 18.43362 -66.05811 877 ft 138 kts 92°
2026-04-27 03:06 18.43364 -66.04809 728 ft 137 kts 92°
2026-04-27 03:06 18.43358 -66.03800 509 ft 138 kts 91°
2026-04-27 03:06 18.43361 -66.02797 295 ft 136 kts 92°
2026-04-27 03:06 18.43355 -66.01800 117 ft 136 kts 92°
2026-04-27 03:07 18.43353 -66.00820 17 ft 126 kts 88°
2026-04-27 03:07 18.43354 -66.00221 17 ft 38 kts 89°
2026-04-27 03:07 18.43375 -65.99984 22 ft 32 kts 63°
2026-04-27 03:07 18.43475 -65.99824 18 ft 15 kts 20°
2026-04-27 03:08 18.43554 -65.99832 18 ft 11 kts 307°
2026-04-27 03:08 18.43560 -65.99918 18 ft 13 kts 270°
2026-04-27 03:08 18.43608 -65.99973 18 ft 16 kts 358°
2026-04-27 03:08 18.43777 -66.00019 18 ft 29 kts 338°
2026-04-27 03:09 18.43802 -66.00068 17 ft 8 kts 239°
2026-04-27 03:09 18.43760 -66.00160 19 ft 17 kts 251°
2026-04-27 03:09 18.43713 -66.00211 18 ft 8 kts 181°
2026-04-27 03:09 18.43703 -66.00211 18 ft 0 kts 180°